Погода в Раменском

Россия / Московская область     55°34′02″N   38°13′33″E
темп.,
°C
ветер,
м/с
пор.,
м/с
влажн.,
%
обл.,
%
осадки,
мм/ч
давл.,
гПа
погр.,
м
6 марта, сб
сб600:00−10зсз23880 0.0 101524
03:00−11сз23880 0.0 101621
06:00−12зсз23920 0.0 101524
09:00−10зсз34933 0.0 1016153
12:00−6зсз358765 0.0 1016545
15:00−5зсз467678 0.2 10151005
18:00−8з3584100 0.3 1015100
21:00−11з348650 0.3 101458
7 марта, вс
вс700:00−11юз47890 0.0 1012117
03:00−10ююз6128925 0.0 1009296
06:00−8юз71589100 0.0 1004744
09:00−5юз91588100 0.7 9991015
12:00−3юз101690100 0.4 9941147
15:000юз101786100 1.0 9911375
18:00−5зсз71570100 1.1 9931022
21:00−9зюз6127950 1.1 996263
8 марта, пн
пн800:00−9зюз5108972 0.1 996216
03:00−8ю259686 1.1 995228
06:00−8ссз4895100 1.3 995260
09:00−10зсз6138493 1.3 997584
12:00−7зсз7118972 0.1 1000981
15:00−6сз7108286 0.4 10031178
18:00−8сз4989100 0.1 1006479
21:00−12сз489283 0.1 1009159
9 марта, вт
вт900:00−14сз35950 0.0 1011106
03:00−16сз35960 0.0 101387
06:00−18ссз35960 0.0 101592
09:00−17ссз36922 0.0 1016292
12:00−13сз458674 0.0 1017612
15:00−12сз468187 0.1 1018803
18:00−15ссз358898 0.0 1019112
21:00−19ссз349458 0.0 102256
10 марта, ср
ср1000:00−22ссз23940 0.0 102330
03:00−24ссз22950 0.0 102421
06:00−25ссз23960 0.0 102425
09:00−22ссв23920 0.0 1025197
12:00−17св237614 0.0 1026494
15:00−14ссв23677 0.0 1026772
18:00−18ссв22810 0.0 102720
21:00−21св11870 0.0 102820